Total_Precipitation_Accumulation
0.42 0.38 0.43 0.50 0.52 0.61 0.77 0.95 1.21 1.10 0.89 0.75 0.70 0.66 0.68 0.73 0.68 0.66 0.67 0.73 0.75 0.75 0.81 0.84 0.86 0.93 1.00 1.11 1.32 1.45 1.54 1.54 1.47 1.44 1.43 1.46 1.45 1.32 1.26 1.19 1.18 1.22 1.36 1.50
0.28 0.26 0.33 0.45 0.54 0.69 0.75 0.81 0.84 0.75 0.72 0.56 0.52 0.47 0.47 0.53 0.55 0.59 0.59 0.60 0.62 0.64 0.69 0.76 0.77 0.84 0.86 0.97 1.14 1.26 1.31 1.37 1.47 1.47 1.34 1.28 1.29 1.28 1.18 1.11 1.08 1.07 1.15 1.28
0.33 0.25 0.40 0.63 0.65 0.71 0.73 0.68 0.60 0.57 0.52 0.39 0.35 0.32 0.33 0.38 0.44 0.54 0.55 0.51 0.52 0.52 0.58 0.67 0.76 0.80 0.85 0.96 1.09 1.14 1.20 1.25 1.31 1.34 1.25 1.19 1.12 1.08 1.06 1.02 1.07 1.06 1.12 1.23
0.45 0.39 0.72 0.87 0.64 0.57 0.64 0.56 0.41 0.38 0.37 0.34 0.30 0.26 0.23 0.23 0.26 0.31 0.36 0.39 0.48 0.48 0.48 0.52 0.62 0.76 0.93 0.97 0.98 1.00 1.07 1.12 1.10 1.11 1.11 1.11 1.00 0.98 0.98 1.00 1.06 1.08 1.14 1.21
0.62 0.62 0.74 0.75 0.52 0.49 0.58 0.58 0.35 0.29 0.29 0.26 0.26 0.24 0.19 0.17 0.18 0.20 0.23 0.30 0.36 0.40 0.41 0.43 0.47 0.54 0.63 0.71 0.79 0.81 0.89 0.94 0.96 0.97 0.99 1.00 0.95 1.05 1.07 1.04 1.05 1.07 1.07 1.08
0.70 0.81 0.89 0.60 0.28 0.27 0.43 0.68 0.34 0.24 0.24 0.23 0.24 0.27 0.23 0.20 0.20 0.18 0.17 0.19 0.24 0.29 0.30 0.31 0.34 0.39 0.47 0.54 0.63 0.71 0.78 0.82 0.89 0.92 0.96 1.03 1.16 1.27 1.28 1.21 1.10 1.03 1.00 0.97
0.75 0.97 0.89 0.51 0.26 0.29 0.57 0.73 0.38 0.24 0.24 0.27 0.27 0.25 0.22 0.22 0.22 0.20 0.17 0.16 0.19 0.22 0.24 0.27 0.29 0.32 0.39 0.45 0.47 0.52 0.59 0.70 0.84 0.96 1.01 1.14 1.31 1.33 1.28 1.21 1.08 0.98 0.95 0.94
0.92 1.16 1.14 0.58 0.37 0.47 0.49 0.34 0.27 0.22 0.21 0.23 0.24 0.24 0.27 0.27 0.24 0.24 0.23 0.21 0.21 0.21 0.21 0.25 0.29 0.31 0.36 0.44 0.45 0.51 0.54 0.58 0.69 0.86 0.98 1.14 1.30 1.29 1.27 1.24 1.14 1.01 0.99 0.98
1.05 1.06 0.79 0.49 0.39 0.33 0.28 0.29 0.22 0.21 0.21 0.22 0.22 0.23 0.26 0.27 0.25 0.24 0.25 0.25 0.24 0.22 0.21 0.23 0.27 0.34 0.37 0.41 0.44 0.46 0.51 0.50 0.54 0.65 0.80 0.99 1.13 1.15 1.16 1.18 1.13 1.06 1.00 0.97
0.62 0.49 0.36 0.32 0.30 0.24 0.18 0.18 0.15 0.16 0.18 0.22 0.27 0.28 0.28 0.27 0.28 0.28 0.26 0.25 0.23 0.22 0.23 0.25 0.27 0.31 0.38 0.44 0.45 0.45 0.47 0.50 0.51 0.53 0.58 0.68 0.79 0.91 0.99 1.01 0.99 0.99 0.98 0.97
0.48 0.35 0.27 0.27 0.26 0.21 0.16 0.14 0.14 0.15 0.16 0.18 0.24 0.27 0.26 0.28 0.27 0.28 0.28 0.29 0.27 0.26 0.27 0.27 0.29 0.30 0.35 0.40 0.44 0.46 0.49 0.54 0.56 0.58 0.60 0.61 0.63 0.69 0.78 0.81 0.90 0.98 0.97 0.97
0.46 0.33 0.27 0.25 0.21 0.19 0.17 0.15 0.16 0.17 0.18 0.20 0.23 0.27 0.31 0.30 0.27 0.25 0.27 0.31 0.31 0.32 0.33 0.32 0.33 0.35 0.37 0.37 0.40 0.43 0.46 0.47 0.48 0.51 0.57 0.58 0.61 0.64 0.73 0.74 0.81 0.83 0.83 0.83
0.24 0.25 0.24 0.21 0.19 0.18 0.15 0.13 0.14 0.15 0.16 0.17 0.20 0.25 0.27 0.26 0.25 0.26 0.29 0.30 0.32 0.33 0.33 0.33 0.34 0.36 0.40 0.39 0.41 0.44 0.46 0.45 0.45 0.46 0.52 0.58 0.59 0.64 0.67 0.66 0.65 0.65 0.68 0.73
0.15 0.21 0.27 0.23 0.20 0.18 0.15 0.13 0.14 0.15 0.15 0.15 0.17 0.21 0.23 0.24 0.24 0.25 0.26 0.28 0.29 0.30 0.30 0.32 0.33 0.34 0.38 0.41 0.46 0.49 0.51 0.54 0.53 0.53 0.56 0.58 0.63 0.68 0.67 0.66 0.62 0.54 0.54 0.59
0.14 0.16 0.21 0.20 0.18 0.15 0.13 0.13 0.15 0.16 0.15 0.17 0.18 0.19 0.23 0.28 0.30 0.32 0.31 0.28 0.26 0.26 0.28 0.32 0.34 0.34 0.35 0.39 0.44 0.47 0.51 0.53 0.56 0.59 0.60 0.61 0.64 0.70 0.73 0.69 0.61 0.56 0.52 0.54
0.14 0.13 0.16 0.18 0.17 0.15 0.13 0.13 0.15 0.16 0.16 0.18 0.20 0.18 0.20 0.24 0.29 0.35 0.39 0.37 0.33 0.31 0.33 0.37 0.36 0.34 0.37 0.42 0.45 0.46 0.48 0.56 0.58 0.60 0.63 0.66 0.66 0.66 0.67 0.69 0.66 0.61 0.57 0.56
0.19 0.18 0.18 0.19 0.16 0.14 0.13 0.14 0.16 0.17 0.17 0.18 0.21 0.20 0.18 0.19 0.21 0.26 0.32 0.35 0.37 0.36 0.34 0.35 0.39 0.40 0.42 0.45 0.49 0.51 0.51 0.54 0.58 0.57 0.57 0.62 0.63 0.62 0.63 0.63 0.62 0.58 0.56 0.57
0.20 0.19 0.17 0.17 0.16 0.15 0.15 0.17 0.18 0.17 0.16 0.19 0.22 0.22 0.22 0.23 0.23 0.25 0.30 0.35 0.36 0.36 0.33 0.33 0.39 0.43 0.44 0.47 0.49 0.54 0.57 0.56 0.52 0.52 0.54 0.57 0.60 0.60 0.60 0.62 0.61 0.57 0.54 0.54
0.18 0.17 0.14 0.15 0.16 0.19 0.20 0.19 0.19 0.18 0.18 0.19 0.22 0.26 0.28 0.29 0.27 0.27 0.29 0.37 0.40 0.40 0.33 0.31 0.39 0.37 0.39 0.45 0.51 0.50 0.53 0.56 0.57 0.58 0.58 0.61 0.64 0.62 0.60 0.59 0.60 0.58 0.59 0.57
0.22 0.19 0.17 0.17 0.19 0.21 0.21 0.20 0.19 0.19 0.19 0.20 0.23 0.27 0.30 0.31 0.30 0.30 0.33 0.40 0.44 0.42 0.36 0.36 0.36 0.35 0.38 0.43 0.53 0.49 0.50 0.48 0.52 0.57 0.61 0.66 0.66 0.67 0.66 0.62 0.62 0.62 0.60 0.59
0.28 0.27 0.24 0.23 0.23 0.22 0.22 0.22 0.21 0.21 0.22 0.23 0.26 0.28 0.31 0.32 0.32 0.33 0.37 0.44 0.40 0.35 0.34 0.39 0.35 0.35 0.39 0.49 0.57 0.51 0.50 0.49 0.52 0.58 0.59 0.61 0.64 0.69 0.76 0.75 0.71 0.65 0.61 0.59
0.29 0.30 0.27 0.24 0.23 0.24 0.24 0.22 0.22 0.23 0.24 0.25 0.26 0.27 0.30 0.33 0.31 0.30 0.32 0.38 0.40 0.43 0.40 0.36 0.34 0.41 0.49 0.51 0.46 0.49 0.51 0.51 0.52 0.56 0.58 0.59 0.63 0.69 0.75 0.78 0.76 0.71 0.68 0.67
0.27 0.26 0.27 0.26 0.26 0.24 0.23 0.23 0.24 0.26 0.27 0.27 0.29 0.32 0.38 0.42 0.40 0.40 0.41 0.37 0.38 0.44 0.40 0.37 0.44 0.53 0.56 0.46 0.44 0.46 0.50 0.55 0.59 0.61 0.64 0.67 0.68 0.71 0.76 0.78 0.82 0.80 0.77 0.76
0.29 0.27 0.26 0.27 0.26 0.25 0.27 0.28 0.27 0.29 0.32 0.34 0.36 0.39 0.47 0.52 0.51 0.48 0.48 0.49 0.49 0.46 0.40 0.43 0.51 0.56 0.56 0.46 0.48 0.50 0.54 0.60 0.66 0.68 0.71 0.74 0.74 0.77 0.82 0.83 0.85 0.85 0.84 0.83
0.37 0.34 0.33 0.36 0.37 0.36 0.36 0.34 0.33 0.32 0.33 0.37 0.39 0.38 0.43 0.50 0.53 0.54 0.54 0.52 0.52 0.52 0.48 0.51 0.56 0.57 0.51 0.49 0.52 0.55 0.59 0.65 0.71 0.73 0.72 0.75 0.76 0.76 0.79 0.84 0.86 0.87 0.89 0.89
0.34 0.33 0.32 0.35 0.38 0.39 0.38 0.38 0.40 0.41 0.42 0.45 0.45 0.43 0.45 0.46 0.48 0.52 0.55 0.57 0.57 0.59 0.53 0.50 0.48 0.50 0.49 0.52 0.55 0.57 0.58 0.61 0.64 0.64 0.66 0.71 0.74 0.75 0.78 0.82 0.84 0.87 0.92 0.94
0.31 0.29 0.28 0.32 0.36 0.36 0.37 0.41 0.47 0.52 0.54 0.58 0.61 0.58 0.55 0.53 0.54 0.55 0.56 0.59 0.64 0.64 0.61 0.59 0.58 0.55 0.57 0.59 0.61 0.61 0.63 0.63 0.61 0.61 0.65 0.68 0.75 0.80 0.84 0.85 0.87 0.90 0.94 0.96